Regional Weather Roundup
Issued by NWS

Home | Current Version | Previous Version | Graphics & Text | Print | Product List | Glossary On
Versions: 1 2 3 4 5 6 7 8 9 10 11 12 13 14 15 16 17 18 19 20 21 22 23 24 25 26 27 28
000
ASUS45 KSLC 161310
RWRUT

UTAH REGIONAL WEATHER ROUNDUP
NATIONAL WEATHER SERVICE SALT LAKE CITY UT
700 AM MDT WED APR 16 2014

UTZ001>011-023>025-161400-

NORTHERN UTAH

CITY           SKY/WX    TMP DP  RH WIND       PRES   REMARKS
HILL AFB       MOCLDY    42  14  32 NW1       29.98S
LOGAN          CLEAR     34  21  59 CALM      30.00S
OGDEN          CLOUDY    41  22  46 CALM      29.98R
PROVO AIRPORT  NOT AVBL
SALT LAKE CITY MOCLDY    42  22  44 NW3       29.98R
VERNAL         MOCLDY    39  12  33 N10G17    29.92R WCI  32
WENDOVER       CLOUDY    45  16  31 NW6       30.02R
HEBER CITY     MOCLDY    36  14  41 E3        29.97S
WEST JORDAN    CLEAR     39  19  45 W7        29.98S WCI  34

$$

UTZ012>022-026-027-161400-

SOUTHERN UTAH

CITY           SKY/WX    TMP DP  RH WIND       PRES   REMARKS
BRYCE CANYON   PTCLDY    22  12  65 W3        29.98S
CEDAR CITY     CLEAR     34  11  38 CALM      29.96R
MILFORD        CLEAR     44  20  38 N13       29.97R
MOAB/CYNLANDS  CLEAR     39  19  44 SW3       29.86R
PRICE          PTCLDY    43   9  24 NE9       29.90R
ST GEORGE      PTSUNNY   48  10  21 SE6       29.87R

$$

REGIONAL REPORTS     COLORADO/ARIZONA

CITY           SKY/WX    TMP DP  RH WIND       PRES   REMARKS
CRAIG, CO      MOCLDY    30  20  66 SW8       29.97R WCI  22
GRAND JUNCTION MOCLDY    44  24  45 CALM      29.89R
RIFLE          CLOUDY    43  16  33 NW12      29.94R
MONTROSE       MOCLDY    40  26  57 VRB3      29.92R
CORTEZ         CLEAR     25  16  68 E6        29.90R WCI  18
PAGE, AZ       PTCLDY    56   6  13 N10       29.86R
GRAND CANYON   PTCLDY    20  -1  40 E3        29.98R
KINGMAN        CLEAR     56   5  13 CALM      29.83R
FLAGSTAFF      CLEAR     31   4  31 CALM      29.98S

$$

REGIONAL REPORTS    NEVADA/IDAHO/WYOMING

CITY           SKY/WX    TMP DP  RH WIND       PRES   REMARKS
LAS VEGAS, NV  PTCLDY    60  18  19 S9        29.74R
ELY            CLOUDY    39  16  39 N12       29.99F WCI  32
ELKO           CLOUDY    42  25  50 W9        30.05R
POCATELLO, ID  CLEAR     25  17  72 W3        30.03R
BURLEY         MOCLDY    35  24  64 E5        30.01R WCI  31
EVANSTON, WY   CLOUDY    30  12  47 N9        29.99R WCI  22
ROCK SPRINGS   CLEAR     28  15  58 W12       29.96R WCI  18

$$



USA.gov is the U.S. government's official web portal to all federal, state and local government web resources and services.